Location: Unspecified
(0.0000°N, 0.0000°E)
Time: 01:20:39
(UTC+00:00)

JUGNU - Pass Details

Date: 10 December 2017
Orbit: 837 x 864 km, 20.0° (Epoch: 19 July)

Event Time Altitude Azimuth Distance (km) Brightness Sun altitude
Rises 20:26:27 0° 223° (SW) 3,389 ? -34.8°
Reaches altitude 10° 20:31:13 10° 189° (S) 2,447 ? -35.9°
Maximum altitude 20:32:53 11° 173° (S) 2,362 ? -36.2°
Enters shadow 20:32:58 11° 172° (S) 2,362 ? -36.3°
